Powrót do katalogu

STARLINK-32545

AktywnyŁącznośćVLEO
NORAD 62135·PAYLOAD·🇺🇸 United States

Wystrzelony Nov 27, 2024 z Cape Canaveral Space Force Station

Loading…

Następne Przeloty (najbliższe 24 godziny)

TLE

ŚwieżeSource: CelesTrak SupGP

Epoka: Sep 15, 2026, 02:38 UTC

1 62135C 24222X   26258.11020833  .00067731  00000+0  24543-2 0  2581
2 62135  42.9997 146.8318 0001789 275.5928  88.2917 15.27529848    10

Śledź STARLINK-32545 w czasie rzeczywistym z AllMySat

Download on the App Store